Lid_Strength_Index
-1 -1 -1 2 6 7 9 8 5 7 7 4 4 5 6 5 6 9 0 -1 -1 -1 -1 -1 -1 -1 -1 -1 -1 -1 -1 -1 -1 -1 -1 -1 -1 -1 -2 -2 -2 -2 -2 -2 -2 -2 -2 -2 -2
-1 -0 1 3 7 10 9 6 7 6 5 4 4 4 5 6 3 2 1 -0 -1 -1 -2 -2 -1 -1 -1 -1 -1 -1 -1 -1 -1 -1 -1 -1 -1 -1 -1 -1 -2 -2 -2 -2 -2 -2 -2 -2 -2
-0 0 4 4 7 10 9 6 6 4 4 4 5 3 4 6 3 2 -0 -1 -1 -1 -1 -2 -1 -1 -1 -1 -1 -1 -1 -1 -1 -1 -1 -1 -1 -1 -2 -2 -2 -2 -2 -2 -2 -2 -2 -2 -2
1 2 3 7 9 8 7 6 5 5 4 3 4 6 4 1 2 1 -1 -1 -1 -1 -1 -1 -1 -1 -1 -1 -1 -1 -1 -1 -1 -1 -1 -1 -1 -1 -1 -2 -2 -2 -2 -2 -2 -2 -2 -2 -2
1 3 6 8 8 7 5 5 4 5 5 4 4 6 5 2 0 -0 -0 -1 -0 -1 -1 -1 -1 -1 -1 -1 -1 -1 -1 -1 -1 -1 -1 -1 -1 -1 -1 -1 -1 -1 -2 -2 -2 -2 -2 -2 -2
4 3 6 9 9 7 5 4 4 5 4 4 5 5 5 1 1 0 -1 -1 -1 -1 -1 -2 -2 -1 -1 -1 -1 -1 -1 -1 -1 -1 -1 -1 -1 -1 -1 -1 -1 -2 -2 -2 -2 -2 -2 -2 -2
4 5 8 8 8 8 6 4 5 5 5 5 4 6 4 2 1 -0 -0 -1 -1 -1 -1 -2 -2 -2 -1 -1 -1 -1 -1 -1 -1 -1 -1 -1 -1 -1 -2 -1 -2 -2 -2 -2 -1 -2 -2 -1 -1
3 4 8 7 8 8 5 5 4 5 6 3 3 6 6 3 1 -0 -0 -0 -1 -1 -1 -1 -2 -2 -2 -2 -1 -1 -1 -1 -1 -2 -2 -1 -2 -2 -2 -3 -2 -2 -2 -2 -2 -2 -2 -1 -1
2 6 7 8 8 7 5 6 4 3 5 4 3 3 2 1 0 1 1 0 1 1 1 -1 -1 -2 -2 -2 -1 -1 -2 -2 -2 -2 -2 -3 -2 -2 -2 -2 -2 -2 -2 -2 -2 -2 -2 -2 -1
5 5 7 5 5 6 5 5 5 6 6 5 5 3 2 2 2 2 2 2 2 2 0 -1 -2 -1 -2 -1 -2 -2 -2 -2 -2 -1 -2 -1 -2 -2 -1 -2 -2 -2 -2 -2 -2 -2 -2 -2 -2
4 7 5 5 5 5 5 6 4 6 7 6 6 5 3 2 2 2 1 1 1 -0 -0 -1 -1 -2 -2 -1 -2 -2 -2 -2 -2 -3 -3 -3 -2 -1 -1 -1 -1 -1 -1 -1 -2 -2 -2 -2 -1
7 5 5 5 5 5 6 5 6 5 6 4 3 3 3 3 2 2 1 1 1 0 -0 -1 -1 -2 -2 -2 -1 -2 -2 -2 -2 -2 -3 -2 -1 -1 -1 -1 -1 -1 -1 -2 -2 -2 -2 -2 -2
6 6 5 4 4 5 4 6 6 6 4 3 3 3 3 2 2 1 1 0 0 0 -0 -1 -1 -2 -2 -2 -2 -2 -2 -2 -2 -2 -2 -2 -1 -1 -1 -2 -2 -2 -2 -2 -1 -1 -2 -1 -2
5 5 5 5 5 5 6 6 6 5 3 4 4 4 3 2 2 1 1 1 0 0 -0 -1 -1 -2 -2 -2 -2 -2 -2 -2 -2 -2 -2 -2 -2 -2 -1 -1 -1 -2 -2 -2 -2 -1 -1 -1 -1
5 7 6 6 5 5 5 7 8 5 4 5 4 4 3 2 2 2 1 1 0 -0 -1 -1 -1 -2 -2 -2 -2 -2 -2 -2 -1 -2 -2 -2 -2 -2 -2 -1 -1 -1 -1 -1 -2 -2 -1 -1 -1
7 6 9 6 6 5 6 10 7 4 5 5 5 4 4 3 2 1 1 1 -0 -0 -0 -1 -1 -2 -2 -2 -2 -1 -2 -2 -1 -2 -2 -2 -2 -2 -2 -1 -1 -1 -1 -1 -1 -1 -0 -0 -0
7 9 9 9 6 6 7 9 6 4 5 5 5 4 4 3 2 1 1 1 0 -0 -1 -1 -1 -1 -1 -2 -2 -2 -2 -1 -1 -1 -2 -2 -1 -1 -1 -1 -1 -2 -1 -1 -1 -1 -1 0 -0
8 9 8 9 7 7 8 8 6 5 5 5 5 4 4 4 3 2 1 0 0 -0 -1 -1 -1 -1 -2 -2 -2 -2 -1 -1 -2 -2 -2 -2 -1 -1 -1 -1 -1 -1 -1 -1 -1 -0 -1 -0 -0
6 7 9 8 7 8 8 8 7 5 5 6 5 5 4 4 2 1 1 1 0 1 -0 -1 -1 -1 -1 -0 0 -0 -0 -1 -1 -1 -2 -2 -1 -1 -1 -1 -1 -1 -1 -0 -0 -0 0 0 -0
7 8 9 8 7 8 9 9 7 6 6 5 5 5 4 4 3 2 1 1 1 1 0 -0 -1 -1 -1 -1 -1 -1 -1 -1 -1 -2 -2 -2 -1 -1 -1 -1 -1 -1 -1 -1 -0 0 1 0 0
7 8 9 9 8 7 8 10 9 6 5 5 4 4 3 4 3 3 2 1 1 1 1 -0 -1 -1 -1 -1 -1 -1 -2 -2 -0 -1 -1 -1 -1 -1 -1 -1 -1 -1 -1 -0 -0 -0 1 2 0
8 7 8 9 9 10 8 11 9 8 7 6 5 4 4 3 3 2 2 2 1 1 0 0 -1 -1 -1 -1 -1 -0 0 1 0 -0 -1 -1 -1 -1 -1 -1 -1 -0 -1 -0 -0 -0 -0 1 2
8 6 7 8 8 10 10 11 10 7 8 7 5 4 3 3 3 3 2 2 1 0 0 -0 0 -1 -1 -1 -1 -0 0 -0 -0 -1 -1 -1 -1 -1 -1 -1 -1 -1 -0 -0 -0 -0 0 1 1
6 7 8 8 8 12 10 11 8 9 8 6 5 4 4 3 3 2 2 1 1 0 0 -0 0 -0 -1 -1 -0 -0 -0 -0 0 0 0 0 0 -0 -1 -0 -1 -1 -1 -1 -0 -0 -0 0 0
7 8 11 11 11 12 10 11 9 7 6 5 5 4 4 3 3 3 2 2 1 1 1 0 1 0 -0 -0 -0 -1 -1 -1 -0 -0 0 -0 0 0 -1 -1 -1 -0 -1 -1 -0 -0 -0 -0 1
7 8 11 14 13 11 10 11 9 6 5 5 4 4 3 3 3 3 2 2 1 1 1 0 1 1 -0 -0 -0 -1 -1 -0 -0 -1 -0 -0 -0 0 -1 -0 -0 -0 -0 -1 -1 -0 -0 -0 -0
8 9 7 10 10 11 9 8 7 6 6 5 5 4 4 3 3 3 2 2 1 1 1 0 1 0 0 -0 -1 -1 -1 -1 -0 -1 -1 -1 -1 -1 -1 -0 -0 -0 -0 -0 -1 -0 -0 -0 -0
6 6 10 9 13 14 10 10 9 7 7 6 5 5 4 3 3 3 2 2 1 1 0 0 0 0 0 -0 -1 -1 -1 -1 -1 -1 -1 -1 -1 -1 -1 -0 -0 -0 -0 -1 -1 -0 -1 -0 -0
7 8 8 8 9 12 13 10 6 6 6 6 5 4 4 3 3 3 2 1 1 1 1 0 0 0 0 -0 -1 -1 -1 -1 -1 -1 -1 -1 -1 -1 -1 -0 0 0 -0 -1 -1 -1 -1 -0 -0
6 7 7 10 11 9 10 10 5 5 5 5 5 4 3 3 3 2 2 2 1 1 1 2 1 0 0 -0 -1 -1 -1 -1 -1 -1 -1 -1 -1 -1 -1 -0 0 0 -0 -1 -1 -0 -0 -0 -0